Location: Kitt Peak
(31.9639°N, 111.5992°W)
Time: 13:30:12
(UTC-07:00)

Tiangong 2 - Visible Passes

Search period start: 23 November 2017 00:00
Search period end: 03 December 2017 00:00
Orbit: 386 x 392 km, 42.8° (Epoch: 23 November)

Date Brightness Start Highest point End Pass type
(mag) Time Alt. Az. Time Alt. Az. Time Alt. Az.
24 Nov 3.5 06:09:07 10° SSW 06:11:45 24° SE 06:14:24 10° E visible
25 Nov 4.2 05:12:27 10° SSE 05:13:43 12° SE 05:15:01 10° ESE visible
26 Nov 1.7 05:49:41 16° SW 05:52:02 55° SE 05:55:10 10° ENE visible
27 Nov 3.9 04:55:13 19° ESE 04:55:13 19° ESE 04:56:38 10° E visible
27 Nov 1.8 06:27:42 10° W 06:30:40 35° NNW 06:33:38 10° NE visible
28 Nov 1.4 05:32:49 55° NNE 05:32:49 55° NNE 05:35:33 10° NE visible
29 Nov 2.6 06:10:09 19° NW 06:11:09 22° NNW 06:13:43 10° NE visible
30 Nov 3.7 05:14:59 15° NE 05:14:59 15° NE 05:15:41 10° NE visible
01 Dec 3.2 05:52:00 15° N 05:52:00 15° N 05:53:43 10° NNE visible
02 Dec 3.5 06:29:33 10° NNW 06:30:50 12° N 06:32:05 10° NNE visible
